Regional Weather Roundup
Issued by NWS

Home | Current Version | Previous Version | Text Only | Print | Product List | Glossary On
Versions: 1 2 3 4 5 6 7 8 9 10 11 12 13 14 15 16 17 18 19 20 21 22 23 24 25 26 27 28 29 30 31 32 33 34 35 36 37 38 39 40 41 42 43 44 45 46 47 48 49 50
000
ASUS45 KPSR 280410
RWRAZ

ARIZONA HOURLY REGIONAL WEATHER ROUNDUP
NATIONAL WEATHER SERVICE PHOENIX AZ
900 PM MST WED MAY 27 2015

NOTE: FAIR INDICATES FEW OR NO CLOUDS BELOW 12,000 FEET WITH NO
SIGNIFICANT WEATHER AND/OR OBSTRUCTIONS TO VISIBILITY.

AZZ001>003-036-280500-
NORTHWEST ARIZONA

CITY           SKY/WX    TMP DP  RH WIND       PRES   REMARKS
BULLHEAD CITY  CLEAR     88  18   7 S3        29.81R
KINGMAN        CLEAR     68  15  13 S9        29.98R
$$

AZZ004>008-015-016-018-280500-
NORTH CENTRAL ARIZONA

CITY           SKY/WX    TMP DP  RH WIND       PRES   REMARKS
GRAND CANYON   PTCLDY    56  32  40 SW5       30.17R
WILLIAMS       PTCLDY    52  28  40 S6        30.25R
PRESCOTT       CLEAR     61  31  32 S7        30.09R
FLAGSTAFF      CLEAR     49  32  52 SW3       30.20R
PAYSON         PTCLDY    66  25  20 W6        30.11R
PAGE           CLEAR     75  32  20 NW3       29.98R
$$

AZZ009>014-017-280500-
NORTHEAST ARIZONA

CITY           SKY/WX    TMP DP  RH WIND       PRES   REMARKS
WINSLOW        PTCLDY    64  28  25 SW14      30.07R
SAINT JOHNS    MOCLDY    63  25  23 W3        30.10R
WINDOW ROCK    MOCLDY    57  28  33 CALM      30.16R
SHOW LOW       MOCLDY    55  23  28 S7        30.17R
$$

AZZ023-280500-
GREATER PHOENIX AREA

CITY           SKY/WX    TMP DP  RH WIND       PRES   REMARKS
PHOENIX        PTCLDY    90  28  11 NW6       29.82R
BUCKEYE        CLEAR     77  32  19 N5        29.84S
DEER VALLEY    CLEAR     81  31  16 N3        29.85R
SCOTTSDALE     CLEAR     85  34  16 CALM      29.87R
MESA-GATEWAY   PTCLDY    84  36  17 NW8       29.87R
CHANDLER       PTCLDY    86  34  15 NW7       29.84
$$

AZZ027-028-280500-
SOUTHWEST MARICOPA COUNTY AND PINAL COUNTY

CITY           SKY/WX    TMP DP  RH WIND       PRES   REMARKS
CASA GRANDE    PTCLDY    82  37  20 NW6       29.85R
$$

AZZ503-504-507>509-280500-
SOUTHEAST ARIZONA

CITY           SKY/WX    TMP DP  RH WIND       PRES   REMARKS
TUCSON         CLEAR     80  17   9 W6        29.94R
NOGALES        CLEAR     69  21  16 E5        30.02R
DOUGLAS        CLEAR     71  12  10 SW10      30.03R
SAFFORD        MOCLDY    80  21  11 W9        29.91R
$$

AZZ020-021-025-026-031-280500-
SOUTHWEST ARIZONA

CITY           SKY/WX    TMP DP  RH WIND       PRES   REMARKS
YUMA           PTCLDY    85  43  22 SW3       29.81R
$$

CAZ031-033-041-043-047-048-061-280500-
SOUTHERN CALIFORNIA

CITY           SKY/WX    TMP DP  RH WIND       PRES   REMARKS
DOWNTOWN L.A.  CLEAR     61  54  77 W5        29.97S
L.A. AIRPORT   PTCLDY    59  55  87 W8        29.98S
SAN DIEGO      MOCLDY    63  54  72 NW6       30.00R
BURBANK        CLEAR     61  52  72 S6        29.97R
ONTARIO        CLEAR     63  53  70 W9        29.97R
RIVERSIDE      CLEAR     64  54  69 W8        29.97R
PALM SPRINGS   CLEAR     85  50  29 NW18      29.82R
EL CENTRO NAS  CLEAR     85  46  25 W7        29.80R
IMPERIAL       CLEAR     88  42  20 S9        29.77R
BLYTHE         CLEAR     86  44  23 S9        29.80R
$$

NVZ020-UTZ003-280500-
SOUTHERN NEVADA-UTAH

CITY           SKY/WX    TMP DP  RH WIND       PRES   REMARKS
LAS VEGAS      PTCLDY    87  30  13 S9        29.80R
SALT LAKE CITY CLOUDY    56  50  80 S8        30.09R
$$

NMZ009-TXZ055-280500-
NEW MEXICO-WEST TEXAS

CITY           SKY/WX    TMP DP  RH WIND       PRES   REMARKS
ALBUQUERQUE    CLOUDY    72  33  24 NE8       30.05S
EL PASO        MOCLDY    81  21  11 N6        29.95R
$$


........................KEY........................
SKY/WX - SKY CONDITION/WEATHER
TMP    - TEMPERATURE IN FAHRENHEIT
DP     - DEW POINT IN FAHRENHEIT
RH     - RELATIVE HUMIDITY IN PERCENT
WIND   - DIRECTION AND SPEED IN MILES PER HOUR (MPH)
VRB    - VARIABLE WIND DIRECTION
PRES   - MEAN SEA LEVEL PRESSURE IN INCHES OF MERCURY
         F - FALLING PRESSURE   R - RISING PRESSURE
         S - STEADY PRESSURE
VSB    - VISIBILITY IN MILES
HX     - HEAT INDEX IN FAHRENHEIT
WCI    - WIND CHILL INDEX IN FAHRENHEIT
TC     - TEMPERATURE IN CELSIUS WHICH IS ALSO KNOWN AS
         TEMPERATURE IN CENTIGRADE
AFB    - AIR FORCE BASE
         LUKE AFB IS LUKE AIR FORCE BASE
         DAVIS-MONTHAN IS DAVIS-MONTHAN AIR FORCE BASE
NAS    - NAVAL AIR STATION
         EL CENTRO NAS IS EL CENTRO NAVAL AIR STATION
N/A    - NOT AVAILABLE



USA.gov is the U.S. government's official web portal to all federal, state and local government web resources and services.